Delta Virtual Airport Information Service

Los Angeles International Airport

ICAO: KLAX Country: United States
Latitude: 33.9425 Longitude: -118.407
Latest Arrival : WJA1422 (2) (CYEG-KLAX) Latest Departure : DAL6166831 (KLAX-KPHX)


WX CaptureLIVE
Data provided by noaa.gov | Fetched at 21:37:45

METAR : KLAX 240153Z 26009KT 10SM FEW017 SCT240 BKN300 18/14 A2996 RMK AO2 SLP144 T01830139

TAF : KLAX 232338Z 2400/2506 26010KT P6SM BKN035 FM240400 VRB03KT P6SM OVC028 FM240900 VRB03KT P6SM OVC035 FM241900 26010KT P6SM BKN040 FM250400 VRB03KT P6SM OVC035


Runway Data for KLAX
Data provided by openaviationdata.com

Runway ID Mag Var Hdg Length Elevation Surface ILS Freq ILS Id ILS Slope
06L 13 69° 8916 ft 126 ft Concrete 108.5 IUWU 3
06R 13 69° 10274 ft 126 ft Concrete 111.7 IGPE 3
07L 13 69° 12078 ft 126 ft Concrete 111.1 IIAS 3
07R 13 69° 11084 ft 126 ft Concrete 109.9 IMKZ 3
24L 13 249° 10274 ft 126 ft Concrete 111.7 IHQB 3
24R 13 249° 8916 ft 126 ft Concrete 108.5 IOSS 3
25L 13 249° 11084 ft 126 ft Concrete 109.9 ILAX 3
25R 13 249° 12078 ft 126 ft Concrete 111.1 ICFN 3

Los Angeles International Airport, United States
Use only for reference purposes



Not for navigational purposes.